Location: LewisvilleTX
(33.0462°N, 96.9942°W)
Time: 12:41:29
(UTC+00:00)

Envisat - Pass Details

Date: 04 October 2021
Orbit: 764 x 766 km, 98.2° (Epoch: 20 October)

Event Time Altitude Azimuth Distance (km) Brightness Sun altitude
Rises 10:07:58 0° 41° (NE) 3,231 7.0 -29.2°
Reaches altitude 10° 10:12:31 10° 79° (ENE) 2,298 6.4 -28.3°
Maximum altitude 10:13:36 11° 91° (E) 2,252 6.3 -28.1°
Drops below altitude 10° 10:14:42 10° 104° (ESE) 2,295 6.2 -27.8°
Sets 10:19:12 0° 142° (SE) 3,215 6.5 -26.9°
